Wind_Speed
23 20 17 16 18 19 21 22 22 21 24 25 31 33 32 35 39 38 43 41 41 43 44 46 44 42 42 39 45 48 47 42 39 44 41 43 42 39 37 36 38 39 40 40
20 18 15 16 15 17 17 18 20 24 23 22 25 26 29 31 35 40 38 39 41 42 43 45 46 47 46 42 40 44 48 45 44 42 45 44 44 43 41 40 38 38 39 39
18 16 15 14 15 16 18 18 20 20 22 25 25 23 27 32 34 35 35 35 35 39 42 44 46 47 47 47 42 40 44 47 42 40 43 42 41 41 42 41 38 37 39 40
20 20 19 17 17 16 15 19 20 21 20 20 21 23 24 30 33 35 36 35 36 38 41 42 46 47 48 48 48 45 44 44 49 53 46 42 41 45 40 41 43 43 43 43
20 19 20 17 16 15 15 15 17 18 20 19 22 24 24 24 28 33 37 37 37 39 44 46 48 50 50 49 49 51 50 48 48 53 41 54 53 43 39 42 41 40 41 42
22 19 12 13 14 17 17 15 14 11 11 13 15 20 25 28 30 34 38 41 42 43 44 43 46 53 54 54 54 54 55 51 49 49 51 53 52 45 46 46 41 39 39 39
19 15 14 16 19 21 21 17 11 7 3 1 3 9 12 15 28 36 41 46 49 50 50 48 48 52 55 54 53 53 55 54 52 52 49 49 51 53 43 41 51 40 37 37
15 8 13 16 19 18 14 6 7 1 2 4 8 7 9 11 14 19 35 46 52 58 57 56 54 52 56 57 57 54 55 58 57 55 54 50 45 47 44 43 36 40 37 38
10 8 12 15 16 10 6 5 9 11 14 9 9 12 14 18 23 20 23 29 36 55 61 64 63 60 56 57 60 58 55 56 59 56 56 51 49 46 39 35 40 41 38 38
9 11 15 15 13 10 12 12 12 12 11 8 4 7 9 11 12 17 18 16 24 33 45 62 67 68 64 61 59 56 55 54 54 56 56 54 53 48 45 42 49 41 38 41
7 9 13 11 13 13 13 11 8 8 11 9 4 6 7 10 14 9 14 19 22 22 25 45 56 69 71 68 64 59 53 52 54 56 54 57 55 52 46 48 49 51 48 48
14 7 11 9 13 11 10 11 11 9 13 13 5 5 8 12 12 13 20 19 18 20 14 19 41 57 64 75 70 64 55 50 50 51 55 53 57 55 53 48 48 50 47 44
21 7 7 8 10 11 12 11 11 12 11 11 5 5 7 12 13 12 13 18 18 15 15 13 16 30 55 57 71 71 62 54 51 52 54 55 55 57 52 49 49 48 43 49
25 14 8 8 8 9 9 5 9 12 10 12 6 5 9 14 16 13 14 16 20 18 10 9 3 5 25 47 50 63 60 51 50 54 54 53 55 55 53 51 53 57 56 46
27 15 8 11 10 9 9 4 8 12 10 9 8 9 9 14 16 17 15 14 18 16 16 6 5 9 6 18 34 45 45 48 47 52 51 50 52 51 50 53 49 50 54 57
27 20 7 10 12 9 10 5 7 9 10 7 7 8 11 11 15 18 20 19 17 16 8 3 13 5 7 13 17 22 29 35 43 45 44 48 49 52 50 52 47 47 51 55
27 25 6 8 9 8 7 7 7 8 7 10 10 11 14 19 20 22 20 15 12 7 11 3 5 15 10 9 14 20 22 23 27 36 39 42 49 48 50 54 53 49 51 53
25 27 12 7 9 10 8 9 8 6 8 10 11 13 17 21 21 18 18 14 12 11 9 8 4 5 5 9 14 22 13 15 19 17 22 32 35 40 46 50 53 52 53 52
22 24 21 5 9 10 10 9 9 9 7 9 10 13 15 12 8 9 11 16 26 32 32 30 25 9 3 2 6 8 10 15 21 16 20 26 30 34 40 44 48 50 53 52
19 21 23 18 5 9 10 10 11 12 9 12 12 10 10 10 16 20 24 25 25 26 30 34 34 33 33 27 12 4 8 14 16 18 21 22 25 28 34 38 42 45 45 50
16 18 19 21 16 6 12 11 10 9 9 9 10 9 10 14 16 16 18 20 20 20 21 22 25 27 27 24 23 24 23 23 16 9 7 14 17 22 25 29 32 34 32 45
16 13 14 17 19 15 14 9 9 6 5 5 6 7 9 10 10 11 13 14 15 16 18 19 21 22 21 21 18 16 14 12 13 12 12 13 13 13 12 13 17 18 19 20
19 12 12 14 16 16 18 18 13 8 7 5 5 6 6 7 8 9 9 10 12 14 16 18 18 16 13 13 13 11 9 6 6 6 4 5 6 7 10 13 15 18 19 21
21 16 12 11 13 13 14 16 16 16 10 8 9 9 10 10 11 12 13 14 14 15 14 12 11 10 10 10 11 10 9 8 9 11 12 13 14 15 16 17 20 22 24 26
15 18 15 11 10 13 11 11 14 13 13 15 15 14 12 8 6 6 6 7 9 13 15 14 12 10 10 10 10 11 12 14 15 15 17 18 19 20 20 22 24 27 28 30
11 16 15 15 12 11 12 9 8 11 11 11 11 12 13 13 13 13 12 11 12 13 12 11 11 12 13 13 14 14 15 15 16 16 16 17 18 20 21 22 22 24 25 29
Wind_Direction
308 310 294 276 274 273 266 260 261 257 254 244 242 243 240 248 239 243 242 243 244 243 242 238 241 240 240 237 231 234 239 242 242 236 245 244 243 240 243 244 245 246 246 248
317 308 303 288 277 273 270 266 260 258 264 250 246 239 239 241 243 246 245 240 239 239 239 237 233 238 241 240 237 238 237 239 246 242 244 243 244 243 240 240 241 246 250 250
333 325 309 297 287 281 278 276 269 261 258 257 255 247 244 244 245 242 243 243 240 237 239 240 238 234 238 240 240 240 240 237 242 243 253 254 250 242 245 245 246 246 249 249
339 333 324 311 301 293 286 279 275 273 268 264 255 241 251 246 246 244 245 242 239 239 239 240 241 238 235 237 240 236 236 238 232 239 248 251 258 259 241 243 241 243 246 250
339 325 321 327 323 322 311 296 283 279 275 274 273 261 262 254 260 251 247 247 246 244 243 241 239 242 238 233 235 239 237 234 240 243 231 242 246 249 242 238 242 246 248 251
332 326 344 340 331 322 316 304 293 291 285 274 274 277 273 265 256 253 251 249 242 239 239 240 244 248 242 235 232 234 238 237 237 240 240 240 243 258 261 246 241 239 244 248
321 330 333 334 333 328 322 318 317 303 282 171 328 305 298 296 261 252 247 243 244 240 235 233 239 240 245 244 242 239 240 241 240 243 244 243 242 243 252 251 243 237 245 252
325 335 323 331 334 330 326 333 15 91 62 337 292 261 293 291 295 285 265 252 244 243 242 239 235 238 241 241 237 236 239 241 240 240 243 245 248 247 248 248 253 243 250 253
343 340 340 341 343 1 1 339 340 327 318 313 279 286 295 300 303 297 278 280 270 254 247 241 237 237 240 243 241 236 235 239 243 242 244 245 247 248 244 258 250 250 255 259
335 336 341 348 338 344 338 328 325 316 308 304 283 281 320 333 332 306 321 327 312 268 254 246 241 236 235 237 240 239 237 237 241 243 244 245 248 242 242 243 245 246 257 261
308 319 335 348 343 343 338 339 356 9 356 2 75 352 352 6 29 15 337 334 317 288 273 252 247 239 236 235 237 238 236 238 237 239 238 240 243 244 245 246 247 249 253 263
347 307 333 329 330 329 345 352 353 27 16 19 1 336 13 14 16 14 21 355 313 291 279 287 252 239 236 231 232 235 235 235 237 235 237 238 239 243 243 251 246 245 243 247
350 317 320 313 318 324 324 349 357 4 13 5 350 337 354 15 23 14 349 348 342 325 271 341 311 250 232 231 227 231 232 232 235 237 237 239 238 240 243 246 251 250 248 253
350 336 294 310 308 321 323 348 6 10 13 21 23 22 6 11 18 0 342 338 350 343 282 312 355 353 242 231 229 223 225 223 232 237 239 240 237 239 241 244 246 246 251 263
352 349 306 301 307 322 339 347 14 8 12 24 22 27 21 12 13 15 13 9 351 341 353 266 265 47 298 223 223 220 222 223 229 237 241 244 238 237 239 239 243 247 247 248
356 353 298 305 312 320 321 7 36 21 16 11 25 14 34 29 26 25 32 10 351 10 338 28 146 357 245 194 185 199 221 229 229 240 244 244 240 237 237 238 247 249 253 255
357 359 337 334 338 335 315 339 29 39 37 47 47 50 49 43 38 30 28 13 352 8 15 71 112 190 219 128 166 192 208 226 241 247 247 242 238 240 244 245 251 257 261 262
357 4 358 342 353 348 340 331 1 27 39 37 41 38 39 32 31 28 27 22 21 32 44 49 62 58 127 166 190 192 201 212 242 223 232 246 245 244 247 249 252 262 263 265
357 6 12 331 341 347 345 346 347 346 359 25 19 37 41 23 55 67 58 62 53 44 46 51 56 35 358 183 210 228 237 212 202 251 259 251 248 249 249 254 258 261 265 268
355 5 11 13 327 331 337 342 351 350 355 12 15 31 40 51 48 44 51 56 54 47 45 43 36 32 37 51 67 207 241 234 237 249 252 263 267 268 270 271 275 276 280 278
350 2 13 16 18 329 303 314 333 344 14 13 8 16 41 45 43 44 46 46 44 41 39 36 35 37 38 38 37 31 34 38 44 42 256 258 260 263 266 262 268 272 279 269
350 354 10 17 19 15 12 336 308 329 353 16 19 27 37 38 30 19 20 17 19 18 14 13 12 15 21 29 33 35 33 30 21 18 12 0 347 341 331 322 316 310 305 304
346 349 359 8 14 17 24 27 15 303 302 320 328 340 343 345 349 347 352 353 353 350 348 348 350 2 15 23 33 41 45 38 38 44 37 349 332 319 305 306 302 299 301 302
336 345 1 5 9 14 19 25 31 32 10 314 298 297 296 298 301 305 311 316 323 330 341 356 21 52 51 48 44 39 32 19 4 350 342 336 330 324 319 314 312 312 311 310
323 334 342 4 19 16 17 25 26 33 37 44 46 47 42 29 8 342 339 11 37 59 65 64 59 46 34 25 16 3 351 342 337 333 331 329 326 320 317 316 313 311 309 307
310 319 334 347 2 21 30 33 29 26 42 50 51 47 45 42 44 52 52 52 49 50 43 32 19 14 9 8 2 358 354 351 348 345 345 348 346 343 343 346 348 346 343 343
Height
5695 5693 5692 5692 5691 5692 5694 5696 5697 5699 5700 5705 5707 5710 5717 5718 5722 5725 5730 5733 5737 5742 5748 5753 5755 5759 5763 5768 5773 5775 5777 5782 5786 5791 5795 5798 5802 5805 5809 5812 5813 5814 5816 5819
5692 5691 5689 5689 5688 5687 5688 5689 5691 5693 5695 5698 5701 5706 5708 5710 5712 5714 5718 5722 5725 5729 5735 5740 5745 5749 5753 5758 5765 5767 5770 5774 5777 5782 5786 5789 5793 5797 5800 5801 5804 5807 5809 5812
5689 5688 5685 5685 5684 5684 5684 5684 5685 5687 5689 5692 5696 5700 5702 5701 5701 5703 5706 5710 5715 5721 5725 5729 5735 5741 5745 5748 5754 5760 5763 5767 5770 5774 5778 5780 5782 5787 5792 5796 5799 5801 5801 5802
5687 5685 5683 5680 5679 5679 5679 5679 5679 5680 5683 5686 5689 5694 5690 5690 5690 5693 5697 5701 5705 5709 5714 5718 5722 5729 5736 5739 5742 5748 5753 5756 5760 5764 5769 5773 5776 5779 5783 5786 5788 5790 5792 5793
5686 5683 5680 5678 5677 5676 5676 5674 5674 5675 5676 5680 5680 5682 5680 5684 5687 5690 5692 5694 5697 5700 5704 5708 5711 5714 5721 5728 5730 5735 5741 5746 5748 5751 5756 5763 5767 5770 5772 5777 5780 5782 5784 5786
5683 5680 5679 5677 5676 5673 5672 5671 5669 5670 5671 5673 5673 5672 5674 5679 5681 5681 5682 5683 5687 5690 5694 5697 5701 5704 5708 5713 5719 5723 5729 5737 5742 5745 5750 5752 5756 5761 5765 5767 5769 5773 5775 5777
5681 5679 5677 5676 5673 5670 5668 5667 5667 5667 5667 5668 5669 5668 5668 5667 5668 5669 5669 5670 5671 5676 5681 5684 5686 5690 5694 5703 5713 5718 5719 5726 5732 5737 5741 5745 5748 5750 5757 5758 5762 5764 5766 5767
5679 5680 5678 5675 5673 5669 5666 5665 5665 5664 5665 5665 5663 5663 5663 5662 5661 5658 5655 5656 5658 5661 5666 5671 5674 5678 5679 5684 5694 5703 5709 5713 5719 5725 5730 5735 5738 5741 5746 5749 5752 5756 5758 5759
5680 5678 5677 5675 5672 5670 5667 5666 5665 5663 5663 5662 5660 5658 5657 5654 5652 5650 5648 5646 5645 5648 5648 5653 5659 5664 5669 5672 5678 5689 5696 5702 5708 5716 5719 5726 5729 5732 5738 5741 5745 5747 5750 5752
5680 5677 5675 5674 5672 5670 5667 5665 5662 5660 5659 5658 5658 5655 5654 5652 5647 5642 5641 5639 5636 5632 5630 5632 5639 5646 5652 5658 5664 5674 5682 5690 5696 5703 5710 5715 5718 5722 5726 5730 5736 5737 5741 5742
5680 5677 5676 5674 5671 5668 5666 5662 5660 5658 5655 5653 5653 5653 5650 5647 5642 5639 5637 5633 5627 5621 5617 5616 5617 5622 5634 5642 5649 5658 5670 5678 5683 5689 5695 5701 5707 5712 5716 5720 5725 5728 5730 5733
5679 5676 5674 5673 5670 5668 5665 5662 5659 5656 5655 5652 5651 5651 5648 5643 5639 5635 5631 5628 5623 5617 5612 5607 5602 5602 5609 5620 5633 5644 5656 5666 5671 5678 5684 5689 5696 5702 5707 5711 5714 5718 5719 5722
5678 5675 5674 5672 5671 5668 5664 5661 5658 5656 5654 5653 5650 5649 5645 5640 5636 5632 5629 5626 5620 5614 5610 5603 5593 5586 5592 5602 5614 5628 5642 5653 5660 5666 5672 5678 5684 5690 5697 5701 5704 5707 5706 5711
5676 5672 5671 5670 5669 5667 5664 5661 5658 5655 5653 5651 5649 5646 5643 5639 5635 5632 5626 5622 5617 5610 5604 5599 5591 5585 5585 5592 5602 5614 5630 5641 5649 5655 5661 5667 5674 5680 5686 5691 5694 5696 5699 5701
5675 5670 5668 5667 5666 5665 5662 5660 5657 5654 5652 5650 5649 5646 5643 5639 5634 5629 5625 5620 5615 5608 5602 5595 5586 5585 5587 5588 5596 5609 5623 5633 5642 5647 5653 5659 5665 5670 5675 5680 5683 5685 5687 5688
5674 5669 5666 5665 5663 5662 5660 5659 5656 5653 5651 5649 5647 5645 5641 5638 5634 5628 5623 5619 5615 5611 5604 5602 5599 5598 5596 5594 5599 5609 5621 5630 5636 5641 5647 5652 5655 5661 5666 5671 5674 5675 5677 5677
5673 5668 5664 5663 5662 5661 5660 5658 5655 5653 5652 5650 5647 5645 5641 5637 5632 5628 5624 5621 5618 5615 5611 5606 5606 5603 5602 5601 5606 5611 5619 5626 5631 5635 5639 5643 5648 5652 5658 5662 5665 5666 5666 5667
5672 5667 5662 5662 5661 5660 5658 5656 5655 5653 5652 5650 5647 5645 5640 5636 5633 5630 5627 5625 5621 5618 5615 5612 5610 5609 5611 5609 5608 5610 5618 5624 5626 5629 5635 5637 5641 5644 5648 5652 5654 5655 5654 5653
5672 5667 5663 5660 5659 5659 5657 5655 5654 5653 5652 5648 5647 5643 5641 5640 5638 5635 5631 5627 5623 5620 5618 5615 5613 5613 5612 5613 5614 5618 5621 5622 5622 5626 5629 5632 5635 5638 5641 5643 5645 5645 5644 5644
5673 5668 5664 5659 5657 5657 5656 5654 5652 5651 5649 5646 5646 5645 5643 5641 5640 5637 5633 5632 5630 5628 5625 5623 5620 5618 5615 5615 5615 5615 5617 5619 5622 5625 5626 5628 5629 5631 5633 5634 5634 5634 5633 5633
5672 5668 5664 5661 5657 5655 5653 5651 5651 5651 5651 5646 5646 5645 5643 5641 5641 5640 5638 5635 5634 5633 5632 5630 5628 5626 5623 5621 5620 5619 5618 5618 5618 5619 5620 5621 5623 5624 5626 5626 5625 5624 5624 5623
5672 5668 5664 5661 5657 5655 5651 5649 5649 5649 5647 5646 5646 5644 5643 5643 5642 5641 5639 5638 5636 5634 5633 5631 5630 5629 5627 5625 5624 5622 5622 5622 5622 5622 5622 5622 5623 5621 5622 5621 5620 5619 5617 5616
5673 5669 5664 5662 5659 5655 5652 5649 5646 5645 5646 5645 5645 5644 5643 5642 5640 5639 5638 5637 5635 5633 5632 5631 5630 5628 5627 5625 5624 5623 5623 5623 5622 5621 5621 5622 5621 5620 5619 5618 5617 5616 5613 5610
5673 5669 5664 5661 5659 5655 5652 5649 5647 5645 5643 5642 5642 5642 5641 5640 5639 5637 5636 5635 5634 5632 5630 5629 5628 5627 5627 5625 5624 5624 5624 5623 5623 5621 5620 5619 5618 5617 5615 5614 5611 5608 5605 5602
5672 5669 5664 5661 5658 5655 5652 5650 5648 5646 5644 5642 5641 5640 5639 5638 5636 5634 5634 5634 5634 5632 5631 5630 5630 5628 5627 5625 5624 5623 5622 5620 5619 5617 5616 5614 5613 5612 5611 5608 5606 5603 5599 5595
5669 5668 5665 5661 5658 5655 5653 5651 5649 5647 5645 5644 5643 5641 5640 5639 5638 5637 5637 5636 5635 5634 5633 5632 5631 5629 5628 5626 5624 5622 5620 5618 5616 5614 5612 5610 5608 5606 5603 5601 5599 5595 5590 5585